Year,Month,Day,Hour,Minute,Value (Times are PST for temperature in C)
2020,12,05,00,00,6.30
2020,12,05,00,01,6.30
2020,12,05,00,02,6.30
2020,12,05,00,03,6.30
2020,12,05,00,04,6.30
2020,12,05,00,05,6.30
2020,12,05,00,06,6.30
2020,12,05,00,07,6.20
2020,12,05,00,08,6.20
2020,12,05,00,09,6.20
2020,12,05,00,10,6.20
2020,12,05,00,11,6.20
2020,12,05,00,12,6.20
2020,12,05,00,13,6.20
2020,12,05,00,14,6.20
2020,12,05,00,15,6.20
2020,12,05,00,16,6.20
2020,12,05,00,17,6.20
2020,12,05,00,18,6.20
2020,12,05,00,19,6.20
2020,12,05,00,20,6.20
2020,12,05,00,21,6.20
2020,12,05,00,22,6.20
2020,12,05,00,23,6.20
2020,12,05,00,24,6.20
2020,12,05,00,25,6.20
2020,12,05,00,26,6.20
2020,12,05,00,27,6.20
2020,12,05,00,28,6.20
2020,12,05,00,29,6.20
2020,12,05,00,30,6.20
2020,12,05,00,31,6.10
2020,12,05,00,32,6.10
2020,12,05,00,33,6.10
2020,12,05,00,34,6.10
2020,12,05,00,35,6.10
2020,12,05,00,36,6.10
2020,12,05,00,37,6.10
2020,12,05,00,38,6.10
2020,12,05,00,39,6.20
2020,12,05,00,40,6.20
2020,12,05,00,41,6.20
2020,12,05,00,42,6.10
2020,12,05,00,43,6.10
2020,12,05,00,44,6.10
2020,12,05,00,45,6.10
2020,12,05,00,46,6.20
2020,12,05,00,47,6.20
2020,12,05,00,48,6.20
2020,12,05,00,49,6.20
2020,12,05,00,50,6.20
2020,12,05,00,51,6.20
2020,12,05,00,52,6.20
2020,12,05,00,53,6.20
2020,12,05,00,54,6.10
2020,12,05,00,55,6.10
2020,12,05,00,56,6.10
2020,12,05,00,57,6.10
2020,12,05,00,58,6.10
2020,12,05,00,59,6.00
2020,12,05,01,00,6.00
2020,12,05,01,01,6.00
2020,12,05,01,02,6.00
2020,12,05,01,03,6.00
2020,12,05,01,04,6.00
2020,12,05,01,05,6.00
2020,12,05,01,06,6.00
2020,12,05,01,07,6.00
2020,12,05,01,08,6.00
2020,12,05,01,09,6.00
2020,12,05,01,10,6.00
2020,12,05,01,11,6.00
2020,12,05,01,12,6.00
2020,12,05,01,13,6.00
2020,12,05,01,14,6.00
2020,12,05,01,15,6.00
2020,12,05,01,16,6.00
2020,12,05,01,17,5.90
2020,12,05,01,18,5.90
2020,12,05,01,19,5.90
2020,12,05,01,20,5.90
2020,12,05,01,21,5.90
2020,12,05,01,22,5.90
2020,12,05,01,23,5.90
2020,12,05,01,24,5.90
2020,12,05,01,25,5.90
2020,12,05,01,26,5.90
2020,12,05,01,27,5.90
2020,12,05,01,28,5.90
2020,12,05,01,29,5.90
2020,12,05,01,30,5.90
2020,12,05,01,31,5.90
2020,12,05,01,32,5.90
2020,12,05,01,33,5.90
2020,12,05,01,34,5.90
2020,12,05,01,35,5.90
2020,12,05,01,36,5.90
2020,12,05,01,37,5.90
2020,12,05,01,38,5.90
2020,12,05,01,39,5.90
2020,12,05,01,40,5.90
2020,12,05,01,41,5.90
2020,12,05,01,42,5.90
2020,12,05,01,43,5.90
2020,12,05,01,44,5.90
2020,12,05,01,45,5.90
2020,12,05,01,46,5.90
2020,12,05,01,47,5.90
2020,12,05,01,48,5.90
2020,12,05,01,49,5.90
2020,12,05,01,50,5.90
2020,12,05,01,51,5.90
2020,12,05,01,52,5.90
2020,12,05,01,53,6.00
2020,12,05,01,54,6.00
2020,12,05,01,55,6.00
2020,12,05,01,56,6.00
2020,12,05,01,57,6.00
2020,12,05,01,58,6.00
2020,12,05,01,59,6.00
2020,12,05,02,00,6.00
2020,12,05,02,01,6.00
2020,12,05,02,02,6.00
2020,12,05,02,03,6.00
2020,12,05,02,04,6.00
2020,12,05,02,05,6.00
2020,12,05,02,06,6.00
2020,12,05,02,07,6.00
2020,12,05,02,08,6.00
2020,12,05,02,09,6.00
2020,12,05,02,10,6.00
2020,12,05,02,11,6.00
2020,12,05,02,12,6.00
2020,12,05,02,13,6.00
2020,12,05,02,14,6.00
2020,12,05,02,15,6.00
2020,12,05,02,16,6.00
2020,12,05,02,17,6.00
2020,12,05,02,18,6.00
2020,12,05,02,19,6.00
2020,12,05,02,20,6.00
2020,12,05,02,21,6.00
2020,12,05,02,22,5.90
2020,12,05,02,23,5.90
2020,12,05,02,24,5.90
2020,12,05,02,25,6.00
2020,12,05,02,26,6.00
2020,12,05,02,27,5.90
2020,12,05,02,28,5.90
2020,12,05,02,29,5.90
2020,12,05,02,30,5.90
2020,12,05,02,31,5.90
2020,12,05,02,32,5.90
2020,12,05,02,33,6.00
2020,12,05,02,34,6.00
2020,12,05,02,35,6.00
2020,12,05,02,36,6.00
2020,12,05,02,37,6.10
2020,12,05,02,38,6.10
2020,12,05,02,39,6.00
2020,12,05,02,40,6.00
2020,12,05,02,41,6.00
2020,12,05,02,42,6.00
2020,12,05,02,43,6.00
2020,12,05,02,44,6.00
2020,12,05,02,45,6.00
2020,12,05,02,46,6.00
2020,12,05,02,47,6.00
2020,12,05,02,48,6.00
2020,12,05,02,49,6.00
2020,12,05,02,50,6.00
2020,12,05,02,51,6.00
2020,12,05,02,52,6.00
2020,12,05,02,53,6.00
2020,12,05,02,54,6.00
2020,12,05,02,55,6.00
2020,12,05,02,56,6.00
2020,12,05,02,57,5.90
2020,12,05,02,58,5.90
2020,12,05,02,59,5.90
2020,12,05,03,00,5.90
2020,12,05,03,01,5.90
2020,12,05,03,02,5.90
2020,12,05,03,03,5.80
2020,12,05,03,04,5.80
2020,12,05,03,05,5.80
2020,12,05,03,06,5.80
2020,12,05,03,07,5.80
2020,12,05,03,08,5.80
2020,12,05,03,09,5.80
2020,12,05,03,10,5.80
2020,12,05,03,11,5.80
2020,12,05,03,12,5.80
2020,12,05,03,13,5.80
2020,12,05,03,14,5.80
2020,12,05,03,15,5.80
2020,12,05,03,16,5.80
2020,12,05,03,17,5.80
2020,12,05,03,18,5.80
2020,12,05,03,19,5.90
2020,12,05,03,20,5.90
2020,12,05,03,21,5.90
2020,12,05,03,22,6.00
2020,12,05,03,23,6.00
2020,12,05,03,24,6.00
2020,12,05,03,25,6.00
2020,12,05,03,26,6.00
2020,12,05,03,27,6.00
2020,12,05,03,28,6.10
2020,12,05,03,29,6.10
2020,12,05,03,30,6.10
2020,12,05,03,31,6.10
2020,12,05,03,32,6.10
2020,12,05,03,33,6.10
2020,12,05,03,34,6.10
2020,12,05,03,35,6.10
2020,12,05,03,36,6.10
2020,12,05,03,37,6.10
2020,12,05,03,38,6.10
2020,12,05,03,39,6.10
2020,12,05,03,40,6.10
2020,12,05,03,41,6.10
2020,12,05,03,42,6.10
2020,12,05,03,43,6.10
2020,12,05,03,44,6.10
2020,12,05,03,45,6.10
2020,12,05,03,46,6.10
2020,12,05,03,47,6.00
2020,12,05,03,48,6.00
2020,12,05,03,49,6.00
2020,12,05,03,50,6.00
2020,12,05,03,51,6.00
2020,12,05,03,52,6.00
2020,12,05,03,53,6.00
2020,12,05,03,54,6.00
2020,12,05,03,55,6.00
2020,12,05,03,56,6.00
2020,12,05,03,57,6.00
2020,12,05,03,58,6.00
2020,12,05,03,59,6.00
2020,12,05,04,00,6.00
2020,12,05,04,01,6.00
2020,12,05,04,02,6.00
2020,12,05,04,03,6.00
2020,12,05,04,04,6.00
2020,12,05,04,05,6.00
2020,12,05,04,06,6.00
2020,12,05,04,07,6.10
2020,12,05,04,08,6.10
2020,12,05,04,09,6.10
2020,12,05,04,10,6.10
2020,12,05,04,11,6.10
2020,12,05,04,12,6.10
2020,12,05,04,13,6.00
2020,12,05,04,14,6.00
2020,12,05,04,15,6.00
2020,12,05,04,16,6.00
2020,12,05,04,17,6.00
2020,12,05,04,18,6.10
2020,12,05,04,19,6.10
2020,12,05,04,20,6.10
2020,12,05,04,21,6.10
2020,12,05,04,22,6.20
2020,12,05,04,23,6.20
2020,12,05,04,24,6.20
2020,12,05,04,25,6.20
2020,12,05,04,26,6.20
2020,12,05,04,27,6.20
2020,12,05,04,28,6.20
2020,12,05,04,29,6.20
2020,12,05,04,30,6.30
2020,12,05,04,31,6.20
2020,12,05,04,32,6.20
2020,12,05,04,33,6.20
2020,12,05,04,34,6.20
2020,12,05,04,35,6.20
2020,12,05,04,36,6.20
2020,12,05,04,37,6.20
2020,12,05,04,38,6.20
2020,12,05,04,39,6.20
2020,12,05,04,40,6.20
2020,12,05,04,41,6.20
2020,12,05,04,42,6.20
2020,12,05,04,43,6.20
2020,12,05,04,44,6.10
2020,12,05,04,45,6.10
2020,12,05,04,46,6.10
2020,12,05,04,47,6.10
2020,12,05,04,48,6.00
2020,12,05,04,49,6.00
2020,12,05,04,50,6.00
2020,12,05,04,51,6.00
2020,12,05,04,52,6.10
2020,12,05,04,53,6.10
2020,12,05,04,54,6.10
2020,12,05,04,55,6.10
2020,12,05,04,56,6.10
2020,12,05,04,57,6.10
2020,12,05,04,58,6.20
2020,12,05,04,59,6.20
2020,12,05,05,00,6.20
2020,12,05,05,01,6.20
2020,12,05,05,02,6.20
2020,12,05,05,03,6.20
2020,12,05,05,04,6.20
2020,12,05,05,05,6.20
2020,12,05,05,06,6.20
2020,12,05,05,07,6.20
2020,12,05,05,08,6.20
2020,12,05,05,09,6.20
2020,12,05,05,10,6.20
2020,12,05,05,11,6.20
2020,12,05,05,12,6.20
2020,12,05,05,13,6.20
2020,12,05,05,14,6.20
2020,12,05,05,15,6.20
2020,12,05,05,16,6.20
2020,12,05,05,17,6.20
2020,12,05,05,18,6.20
2020,12,05,05,19,6.20
2020,12,05,05,20,6.20
2020,12,05,05,21,6.20
2020,12,05,05,22,6.30
2020,12,05,05,23,6.30
2020,12,05,05,24,6.30
2020,12,05,05,25,6.30
2020,12,05,05,26,6.30
2020,12,05,05,27,6.30
2020,12,05,05,28,6.30
2020,12,05,05,29,6.30
2020,12,05,05,30,6.30
2020,12,05,05,31,6.30
2020,12,05,05,32,6.30
2020,12,05,05,33,6.30
2020,12,05,05,34,6.30
2020,12,05,05,35,6.30
2020,12,05,05,36,6.30
2020,12,05,05,37,6.30
2020,12,05,05,38,6.40
2020,12,05,05,39,6.40
2020,12,05,05,40,6.40
2020,12,05,05,41,6.40
2020,12,05,05,42,6.40
2020,12,05,05,43,6.40
2020,12,05,05,44,6.40
2020,12,05,05,45,6.50
2020,12,05,05,46,6.60
2020,12,05,05,47,6.60
2020,12,05,05,48,6.60
2020,12,05,05,49,6.60
2020,12,05,05,50,6.60
2020,12,05,05,51,6.60
2020,12,05,05,52,6.60
2020,12,05,05,53,6.60
2020,12,05,05,54,6.60
2020,12,05,05,55,6.60
2020,12,05,05,56,6.60
2020,12,05,05,57,6.60
2020,12,05,05,58,6.60
2020,12,05,05,59,6.60
2020,12,05,06,00,6.60
2020,12,05,06,01,6.60
2020,12,05,06,02,6.60
2020,12,05,06,03,6.50
2020,12,05,06,04,6.40
2020,12,05,06,05,6.40
2020,12,05,06,06,6.40
2020,12,05,06,07,6.40
2020,12,05,06,08,6.40
2020,12,05,06,09,6.40
2020,12,05,06,10,6.40
2020,12,05,06,11,6.40
2020,12,05,06,12,6.40
2020,12,05,06,13,6.40
2020,12,05,06,14,6.40
2020,12,05,06,15,6.40
2020,12,05,06,16,6.40
2020,12,05,06,17,6.40
2020,12,05,06,18,6.30
2020,12,05,06,19,6.30
2020,12,05,06,20,6.30
2020,12,05,06,21,6.30
2020,12,05,06,22,6.30
2020,12,05,06,23,6.30
2020,12,05,06,24,6.30
2020,12,05,06,25,6.30
2020,12,05,06,26,6.30
2020,12,05,06,27,6.30
2020,12,05,06,28,6.30
2020,12,05,06,29,6.30
2020,12,05,06,30,6.20
2020,12,05,06,31,6.20
2020,12,05,06,32,6.20
2020,12,05,06,33,6.20
2020,12,05,06,34,6.20
2020,12,05,06,35,6.20
2020,12,05,06,36,6.20
2020,12,05,06,37,6.20
2020,12,05,06,38,6.20
2020,12,05,06,39,6.20
2020,12,05,06,40,6.20
2020,12,05,06,41,6.20
2020,12,05,06,42,6.20
2020,12,05,06,43,6.20
2020,12,05,06,44,6.20
2020,12,05,06,45,6.20
2020,12,05,06,46,6.10
2020,12,05,06,47,6.10
2020,12,05,06,48,6.10
2020,12,05,06,49,6.10
2020,12,05,06,50,6.10
2020,12,05,06,51,6.10
2020,12,05,06,52,6.10
2020,12,05,06,53,6.10
2020,12,05,06,54,6.10
2020,12,05,06,55,6.00
2020,12,05,06,56,6.00
2020,12,05,06,57,6.10
2020,12,05,06,58,6.10
2020,12,05,06,59,6.10
2020,12,05,07,00,6.10
2020,12,05,07,01,6.10
2020,12,05,07,02,6.10
2020,12,05,07,03,6.10
2020,12,05,07,04,6.10
2020,12,05,07,05,6.10
2020,12,05,07,06,6.10
2020,12,05,07,07,6.10
2020,12,05,07,08,6.10
2020,12,05,07,09,6.10
2020,12,05,07,10,6.10
2020,12,05,07,11,6.20
2020,12,05,07,12,6.20
2020,12,05,07,13,6.20
2020,12,05,07,14,6.20
2020,12,05,07,15,6.20
2020,12,05,07,16,6.20
2020,12,05,07,17,6.20
2020,12,05,07,18,6.20
2020,12,05,07,19,6.20
2020,12,05,07,20,6.30
2020,12,05,07,21,6.30
2020,12,05,07,22,6.30
2020,12,05,07,23,6.30
2020,12,05,07,24,6.30
2020,12,05,07,25,6.30
2020,12,05,07,26,6.30
2020,12,05,07,27,6.30
2020,12,05,07,28,6.30
2020,12,05,07,29,6.30
2020,12,05,07,30,6.30
2020,12,05,07,31,6.40
2020,12,05,07,32,6.40
2020,12,05,07,33,6.40
2020,12,05,07,34,6.40
2020,12,05,07,35,6.40
2020,12,05,07,36,6.40
2020,12,05,07,37,6.40
2020,12,05,07,38,6.40
2020,12,05,07,39,6.40
2020,12,05,07,40,6.40
2020,12,05,07,41,6.40
2020,12,05,07,42,6.40
2020,12,05,07,43,6.40
2020,12,05,07,44,6.40
2020,12,05,07,45,6.40
2020,12,05,07,46,6.30
2020,12,05,07,47,6.30
2020,12,05,07,48,6.30
2020,12,05,07,49,6.30
2020,12,05,07,50,6.30
2020,12,05,07,51,6.30
2020,12,05,07,52,6.30
2020,12,05,07,53,6.30
2020,12,05,07,54,6.30
2020,12,05,07,55,6.30
2020,12,05,07,56,6.30
2020,12,05,07,57,6.30
2020,12,05,07,58,6.30
2020,12,05,07,59,6.30
2020,12,05,08,00,6.30
2020,12,05,08,01,6.30
2020,12,05,08,02,6.40
2020,12,05,08,03,6.40
2020,12,05,08,04,6.40
2020,12,05,08,05,6.40
2020,12,05,08,06,6.40
2020,12,05,08,07,6.40
2020,12,05,08,08,6.40
2020,12,05,08,09,6.40
2020,12,05,08,10,6.40
2020,12,05,08,11,6.40
2020,12,05,08,12,6.40
2020,12,05,08,13,6.40
2020,12,05,08,14,6.40
2020,12,05,08,15,6.40
2020,12,05,08,16,6.50
2020,12,05,08,17,6.60
2020,12,05,08,18,6.60
2020,12,05,08,19,6.60
2020,12,05,08,20,6.60
2020,12,05,08,21,6.60
2020,12,05,08,22,6.60
2020,12,05,08,23,6.60
2020,12,05,08,24,6.60
2020,12,05,08,25,6.60
2020,12,05,08,26,6.60
2020,12,05,08,27,6.60
2020,12,05,08,28,6.60
2020,12,05,08,29,6.60
2020,12,05,08,30,6.70
2020,12,05,08,31,6.70
2020,12,05,08,32,6.70
2020,12,05,08,33,6.70
2020,12,05,08,34,6.70
2020,12,05,08,35,6.70
2020,12,05,08,36,6.70
2020,12,05,08,37,6.70
2020,12,05,08,38,6.80
2020,12,05,08,39,6.80
2020,12,05,08,40,6.80
2020,12,05,08,41,6.80
2020,12,05,08,42,6.80
2020,12,05,08,43,6.80
2020,12,05,08,44,6.80
2020,12,05,08,45,6.80
2020,12,05,08,46,6.80
2020,12,05,08,47,6.80
2020,12,05,08,48,6.80
2020,12,05,08,49,6.80
2020,12,05,08,50,6.80
2020,12,05,08,51,6.80
2020,12,05,08,52,6.80
2020,12,05,08,53,6.80
2020,12,05,08,54,6.90
2020,12,05,08,55,6.90
2020,12,05,08,56,6.90
2020,12,05,08,57,6.90
2020,12,05,08,58,7.00
2020,12,05,08,59,7.00
2020,12,05,09,00,7.00
2020,12,05,09,01,7.10
2020,12,05,09,02,7.10
2020,12,05,09,03,7.10
2020,12,05,09,04,7.20
2020,12,05,09,05,7.20
2020,12,05,09,06,7.20
2020,12,05,09,07,7.30
2020,12,05,09,08,7.30
2020,12,05,09,09,7.30
2020,12,05,09,10,7.30
2020,12,05,09,11,7.30
2020,12,05,09,12,7.30
2020,12,05,09,13,7.40
2020,12,05,09,14,7.40
2020,12,05,09,15,7.40
2020,12,05,09,16,7.40
2020,12,05,09,17,7.50
2020,12,05,09,18,7.50
2020,12,05,09,19,7.50
2020,12,05,09,20,7.50
2020,12,05,09,21,7.60
2020,12,05,09,22,7.60
2020,12,05,09,23,7.60
2020,12,05,09,24,7.60
2020,12,05,09,25,7.70
2020,12,05,09,26,7.70
2020,12,05,09,27,7.70
2020,12,05,09,28,7.80
2020,12,05,09,29,7.80
2020,12,05,09,30,7.80
2020,12,05,09,31,7.80
2020,12,05,09,32,7.80
2020,12,05,09,33,7.90
2020,12,05,09,34,7.90
2020,12,05,09,35,7.90
2020,12,05,09,36,7.90
2020,12,05,09,37,7.90
2020,12,05,09,38,8.00
2020,12,05,09,39,8.00
2020,12,05,09,40,8.00
2020,12,05,09,41,8.10
2020,12,05,09,42,8.10
2020,12,05,09,43,8.10
2020,12,05,09,44,8.10
2020,12,05,09,45,8.20
2020,12,05,09,46,8.20
2020,12,05,09,47,8.20
2020,12,05,09,48,8.20
2020,12,05,09,49,8.20
2020,12,05,09,50,8.20
2020,12,05,09,51,8.20
2020,12,05,09,52,8.30
2020,12,05,09,53,8.30
2020,12,05,09,54,8.30
2020,12,05,09,55,8.40
2020,12,05,09,56,8.40
2020,12,05,09,57,8.50
2020,12,05,09,58,8.50
2020,12,05,09,59,8.50
2020,12,05,10,00,8.50
2020,12,05,10,01,8.60
2020,12,05,10,02,8.60
2020,12,05,10,03,8.60
2020,12,05,10,04,8.60
2020,12,05,10,05,8.70
2020,12,05,10,06,8.70
2020,12,05,10,07,8.70
2020,12,05,10,08,8.70
2020,12,05,10,09,8.70
2020,12,05,10,10,8.70
2020,12,05,10,11,8.70
2020,12,05,10,12,8.70
2020,12,05,10,13,8.70
2020,12,05,10,14,8.70
2020,12,05,10,15,8.70
2020,12,05,10,16,8.70
2020,12,05,10,17,8.70
2020,12,05,10,18,8.70
2020,12,05,10,19,8.70
2020,12,05,10,20,8.70
2020,12,05,10,21,8.70
2020,12,05,10,22,8.70
2020,12,05,10,23,8.70
2020,12,05,10,24,8.70
2020,12,05,10,25,8.70
2020,12,05,10,26,8.70
2020,12,05,10,27,8.60
2020,12,05,10,28,8.60
2020,12,05,10,29,8.60
2020,12,05,10,30,8.60
2020,12,05,10,31,8.60
2020,12,05,10,32,8.60
2020,12,05,10,33,8.60
2020,12,05,10,34,8.60
2020,12,05,10,35,8.60
2020,12,05,10,36,8.60
2020,12,05,10,37,8.60
2020,12,05,10,38,8.60
2020,12,05,10,39,8.60
2020,12,05,10,40,8.60
2020,12,05,10,41,8.60
2020,12,05,10,42,8.60
2020,12,05,10,43,8.70
2020,12,05,10,44,8.70
2020,12,05,10,45,8.70
2020,12,05,10,46,8.80
2020,12,05,10,47,8.80
2020,12,05,10,48,8.80
2020,12,05,10,49,8.80
2020,12,05,10,50,8.90
2020,12,05,10,51,8.90
2020,12,05,10,52,8.90
2020,12,05,10,53,8.90
2020,12,05,10,54,8.90
2020,12,05,10,55,8.90
2020,12,05,10,56,8.90
2020,12,05,10,57,8.90
2020,12,05,10,58,9.00
2020,12,05,10,59,9.00
2020,12,05,11,00,9.10
2020,12,05,11,01,9.10
2020,12,05,11,02,9.10
2020,12,05,11,03,9.20
2020,12,05,11,04,9.20
2020,12,05,11,05,9.20
2020,12,05,11,06,9.20
2020,12,05,11,07,9.20
2020,12,05,11,08,9.20
2020,12,05,11,09,9.20
2020,12,05,11,10,9.20
2020,12,05,11,11,9.20
2020,12,05,11,12,9.20
2020,12,05,11,13,9.20
2020,12,05,11,14,9.20
2020,12,05,11,15,9.20
2020,12,05,11,16,9.20
2020,12,05,11,17,9.20
2020,12,05,11,18,9.20
2020,12,05,11,19,9.20
2020,12,05,11,20,9.20
2020,12,05,11,21,9.20
2020,12,05,11,22,9.20
2020,12,05,11,23,9.20
2020,12,05,11,24,9.20
2020,12,05,11,25,9.20
2020,12,05,11,26,9.20
2020,12,05,11,27,9.20
2020,12,05,11,28,9.20
2020,12,05,11,29,9.20
2020,12,05,11,30,9.20
2020,12,05,11,31,9.20
2020,12,05,11,32,9.20
2020,12,05,11,33,9.20
2020,12,05,11,34,9.20
2020,12,05,11,35,9.20
2020,12,05,11,36,9.20
2020,12,05,11,37,9.20
2020,12,05,11,38,9.20
2020,12,05,11,39,9.20
2020,12,05,11,40,9.20
2020,12,05,11,41,9.30
2020,12,05,11,42,9.30
2020,12,05,11,43,9.40
2020,12,05,11,44,9.40
2020,12,05,11,45,9.40
2020,12,05,11,46,9.40
2020,12,05,11,47,9.40
2020,12,05,11,48,9.50
2020,12,05,11,49,9.50
2020,12,05,11,50,9.50
2020,12,05,11,51,9.50
2020,12,05,11,52,9.50
2020,12,05,11,53,9.50
2020,12,05,11,54,9.50
2020,12,05,11,55,9.50
2020,12,05,11,56,9.50
2020,12,05,11,57,9.50
2020,12,05,11,58,9.50
2020,12,05,11,59,9.50
2020,12,05,12,00,9.50
2020,12,05,12,01,9.40
2020,12,05,12,02,9.40
2020,12,05,12,03,9.40
2020,12,05,12,04,9.50
2020,12,05,12,05,9.50
2020,12,05,12,06,9.50
2020,12,05,12,07,9.50
2020,12,05,12,08,9.50
2020,12,05,12,09,9.50
2020,12,05,12,10,9.60
2020,12,05,12,11,9.60
2020,12,05,12,12,9.60
2020,12,05,12,13,9.60
2020,12,05,12,14,9.70
2020,12,05,12,15,9.70
2020,12,05,12,16,9.70
2020,12,05,12,17,9.70
2020,12,05,12,18,9.70
2020,12,05,12,19,9.80
2020,12,05,12,20,9.80
2020,12,05,12,21,9.80
2020,12,05,12,22,9.90
2020,12,05,12,23,9.90
2020,12,05,12,24,9.90
2020,12,05,12,25,9.90
2020,12,05,12,26,9.90
2020,12,05,12,27,10.10
2020,12,05,12,28,10.10
2020,12,05,12,29,10.10
2020,12,05,12,30,10.10
2020,12,05,12,31,10.10
2020,12,05,12,32,10.10
2020,12,05,12,33,10.10
2020,12,05,12,34,10.20
2020,12,05,12,35,10.20
2020,12,05,12,36,10.20
2020,12,05,12,37,10.20
2020,12,05,12,38,10.20
2020,12,05,12,39,10.20
2020,12,05,12,40,10.20
2020,12,05,12,41,10.30
2020,12,05,12,42,10.40
2020,12,05,12,43,10.40
2020,12,05,12,44,10.40
2020,12,05,12,45,10.40
2020,12,05,12,46,10.40
2020,12,05,12,47,10.40
2020,12,05,12,48,10.40
2020,12,05,12,49,10.40
2020,12,05,12,50,10.40
2020,12,05,12,51,10.40
2020,12,05,12,52,10.40
2020,12,05,12,53,10.40
2020,12,05,12,54,10.40
2020,12,05,12,55,10.40
2020,12,05,12,56,10.40
2020,12,05,12,57,10.40
2020,12,05,12,58,10.40
2020,12,05,12,59,10.40
2020,12,05,13,00,10.40
2020,12,05,13,01,10.30
2020,12,05,13,02,10.30
2020,12,05,13,03,10.30
2020,12,05,13,04,10.30
2020,12,05,13,05,10.30
2020,12,05,13,06,10.30
2020,12,05,13,07,10.30
2020,12,05,13,08,10.30
2020,12,05,13,09,10.40
2020,12,05,13,10,10.40
2020,12,05,13,11,10.40
2020,12,05,13,12,10.40
2020,12,05,13,13,10.40
2020,12,05,13,14,10.50
2020,12,05,13,15,10.60
2020,12,05,13,16,10.60
2020,12,05,13,17,10.60
2020,12,05,13,18,10.60
2020,12,05,13,19,10.60
2020,12,05,13,20,10.60
2020,12,05,13,21,10.60
2020,12,05,13,22,10.60
2020,12,05,13,23,10.60
2020,12,05,13,24,10.60
2020,12,05,13,25,10.60
2020,12,05,13,26,10.60
2020,12,05,13,27,10.60
2020,12,05,13,28,10.60
2020,12,05,13,29,10.60
2020,12,05,13,30,10.60
2020,12,05,13,31,10.60
2020,12,05,13,32,10.60
2020,12,05,13,33,10.70
2020,12,05,13,34,10.70
2020,12,05,13,35,10.70
2020,12,05,13,36,10.70
2020,12,05,13,37,10.70
2020,12,05,13,38,10.70
2020,12,05,13,39,10.70
2020,12,05,13,40,10.60
2020,12,05,13,41,10.60
2020,12,05,13,42,10.60
2020,12,05,13,43,10.60
2020,12,05,13,44,10.60
2020,12,05,13,45,10.60
2020,12,05,13,46,10.60
2020,12,05,13,47,10.60
2020,12,05,13,48,10.60
2020,12,05,13,49,10.50
2020,12,05,13,50,10.40
2020,12,05,13,51,10.40
2020,12,05,13,52,10.40
2020,12,05,13,53,10.40
2020,12,05,13,54,10.50
2020,12,05,13,55,10.60
2020,12,05,13,56,10.60
2020,12,05,13,57,10.60
2020,12,05,13,58,10.60
2020,12,05,13,59,10.60
2020,12,05,14,00,10.60
2020,12,05,14,01,10.60
2020,12,05,14,02,10.60
2020,12,05,14,03,10.60
2020,12,05,14,04,10.60
2020,12,05,14,05,10.60
2020,12,05,14,06,10.70
2020,12,05,14,07,10.70
2020,12,05,14,08,10.70
2020,12,05,14,09,10.70
2020,12,05,14,10,10.70
2020,12,05,14,11,10.70
2020,12,05,14,12,10.80
2020,12,05,14,13,10.80
2020,12,05,14,14,10.70
2020,12,05,14,15,10.70
2020,12,05,14,16,10.70
2020,12,05,14,17,10.70
2020,12,05,14,18,10.80
2020,12,05,14,19,10.80
2020,12,05,14,20,10.80
2020,12,05,14,21,10.80
2020,12,05,14,22,10.70
2020,12,05,14,23,10.70
2020,12,05,14,24,10.70
2020,12,05,14,25,10.70
2020,12,05,14,26,10.70
2020,12,05,14,27,10.70
2020,12,05,14,28,10.70
2020,12,05,14,29,10.70
2020,12,05,14,30,10.70
2020,12,05,14,31,10.60
2020,12,05,14,32,10.60
2020,12,05,14,33,10.60
2020,12,05,14,34,10.60
2020,12,05,14,35,10.60
2020,12,05,14,36,10.60
2020,12,05,14,37,10.60
2020,12,05,14,38,10.70
2020,12,05,14,39,10.70
2020,12,05,14,40,10.70
2020,12,05,14,41,10.60
2020,12,05,14,42,10.60
2020,12,05,14,43,10.60
2020,12,05,14,44,10.60
2020,12,05,14,45,10.60
2020,12,05,14,46,10.60
2020,12,05,14,47,10.60
2020,12,05,14,48,10.70
2020,12,05,14,49,10.70
2020,12,05,14,50,10.70
2020,12,05,14,51,10.70
2020,12,05,14,52,10.70
2020,12,05,14,53,10.70
2020,12,05,14,54,10.80
2020,12,05,14,55,10.80
2020,12,05,14,56,10.80
2020,12,05,14,57,10.80
2020,12,05,14,58,10.80
2020,12,05,14,59,10.80
2020,12,05,15,00,10.80
2020,12,05,15,01,10.80
2020,12,05,15,02,10.90
2020,12,05,15,03,10.90
2020,12,05,15,04,10.90
2020,12,05,15,05,10.90
2020,12,05,15,06,10.90
2020,12,05,15,07,10.90
2020,12,05,15,08,10.90
2020,12,05,15,09,10.90
2020,12,05,15,10,10.90
2020,12,05,15,11,10.90
2020,12,05,15,12,10.90
2020,12,05,15,13,10.90
2020,12,05,15,14,10.90
2020,12,05,15,15,10.90
2020,12,05,15,16,10.80
2020,12,05,15,17,10.80
2020,12,05,15,18,10.80
2020,12,05,15,19,10.80
2020,12,05,15,20,10.80
2020,12,05,15,21,10.70
2020,12,05,15,22,10.70
2020,12,05,15,23,10.70
2020,12,05,15,24,10.70
2020,12,05,15,25,10.60
2020,12,05,15,26,10.60
2020,12,05,15,27,10.60
2020,12,05,15,28,10.60
2020,12,05,15,29,10.60
2020,12,05,15,30,10.60
2020,12,05,15,31,10.60
2020,12,05,15,32,10.60
2020,12,05,15,33,10.60
2020,12,05,15,34,10.60
2020,12,05,15,35,10.50
2020,12,05,15,36,10.40
2020,12,05,15,37,10.40
2020,12,05,15,38,10.40
2020,12,05,15,39,10.40
2020,12,05,15,40,10.30
2020,12,05,15,41,10.30
2020,12,05,15,42,10.30
2020,12,05,15,43,10.20
2020,12,05,15,44,10.20
2020,12,05,15,45,10.20
2020,12,05,15,46,10.20
2020,12,05,15,47,10.20
2020,12,05,15,48,10.10
2020,12,05,15,49,10.10
2020,12,05,15,50,10.10
2020,12,05,15,51,10.10
2020,12,05,15,52,10.10
2020,12,05,15,53,10.10
2020,12,05,15,54,10.10
2020,12,05,15,55,10.10
2020,12,05,15,56,10.10
2020,12,05,15,57,10.10
2020,12,05,15,58,10.10
2020,12,05,15,59,10.00
2020,12,05,16,00,9.90
2020,12,05,16,01,9.90
2020,12,05,16,02,9.90
2020,12,05,16,03,9.90
2020,12,05,16,04,9.90
2020,12,05,16,05,9.80
2020,12,05,16,06,9.80
2020,12,05,16,07,9.80
2020,12,05,16,08,9.70
2020,12,05,16,09,9.70
2020,12,05,16,10,9.70
2020,12,05,16,11,9.70
2020,12,05,16,12,9.60
2020,12,05,16,13,9.60
2020,12,05,16,14,9.60
2020,12,05,16,15,9.60
2020,12,05,16,16,9.50
2020,12,05,16,17,9.50
2020,12,05,16,18,9.50
2020,12,05,16,19,9.40
2020,12,05,16,20,9.40
2020,12,05,16,21,9.40
2020,12,05,16,22,9.30
2020,12,05,16,23,9.30
2020,12,05,16,24,9.20
2020,12,05,16,25,9.20
2020,12,05,16,26,9.20
2020,12,05,16,27,9.20
2020,12,05,16,28,9.10
2020,12,05,16,29,9.10
2020,12,05,16,30,9.00
2020,12,05,16,31,9.00
2020,12,05,16,32,9.00
2020,12,05,16,33,9.00
2020,12,05,16,34,8.90
2020,12,05,16,35,8.90
2020,12,05,16,36,8.90
2020,12,05,16,37,8.80
2020,12,05,16,38,8.80
2020,12,05,16,39,8.80
2020,12,05,16,40,8.80
2020,12,05,16,41,8.80
2020,12,05,16,42,8.80
2020,12,05,16,43,8.80
2020,12,05,16,44,8.80
2020,12,05,16,45,8.80
2020,12,05,16,46,8.80
2020,12,05,16,47,8.80
2020,12,05,16,48,8.80
2020,12,05,16,49,8.80
2020,12,05,16,50,8.80
2020,12,05,16,51,8.80
2020,12,05,16,52,8.80
2020,12,05,16,53,8.80
2020,12,05,16,54,8.80
2020,12,05,16,55,8.80
2020,12,05,16,56,8.80
2020,12,05,16,57,8.80
2020,12,05,16,58,8.80
2020,12,05,16,59,8.80
2020,12,05,17,00,8.80
2020,12,05,17,01,8.80
2020,12,05,17,02,8.70
2020,12,05,17,03,8.70
2020,12,05,17,04,8.70
2020,12,05,17,05,8.70
2020,12,05,17,06,8.70
2020,12,05,17,07,8.60
2020,12,05,17,08,8.60
2020,12,05,17,09,8.60
2020,12,05,17,10,8.50
2020,12,05,17,11,8.50
2020,12,05,17,12,8.50
2020,12,05,17,13,8.50
2020,12,05,17,14,8.40
2020,12,05,17,15,8.40
2020,12,05,17,16,8.40
2020,12,05,17,17,8.30
2020,12,05,17,18,8.30
2020,12,05,17,19,8.30
2020,12,05,17,20,8.30
2020,12,05,17,21,8.30
2020,12,05,17,22,8.30
2020,12,05,17,23,8.30
2020,12,05,17,24,8.30
2020,12,05,17,25,8.20
2020,12,05,17,26,8.20
2020,12,05,17,27,8.20
2020,12,05,17,28,8.20
2020,12,05,17,29,8.20
2020,12,05,17,30,8.20
2020,12,05,17,31,8.20
2020,12,05,17,32,8.20
2020,12,05,17,33,8.20
2020,12,05,17,34,8.20
2020,12,05,17,35,8.20
2020,12,05,17,36,8.20
2020,12,05,17,37,8.30
2020,12,05,17,38,8.30
2020,12,05,17,39,8.30
2020,12,05,17,40,8.30
2020,12,05,17,41,8.30
2020,12,05,17,42,8.20
2020,12,05,17,43,8.20
2020,12,05,17,44,8.20
2020,12,05,17,45,8.20
2020,12,05,17,46,8.20
2020,12,05,17,47,8.20
2020,12,05,17,48,8.20
2020,12,05,17,49,8.20
2020,12,05,17,50,8.20
2020,12,05,17,51,8.10
2020,12,05,17,52,8.10
2020,12,05,17,53,8.10
2020,12,05,17,54,8.10
2020,12,05,17,55,8.10
2020,12,05,17,56,8.00
2020,12,05,17,57,8.00